Regional Weather Roundup
Issued by NWS New Orleans/Baton Rouge, LA

Home | Current Version | Previous Version | Graphics & Text | Print | Product List | Glossary On
Versions: 1 2 3 4 5 6 7 8 9 10 11 12 13 14 15 16 17 18 19 20 21 22 23 24 25 26 27 28 29 30 31 32 33 34 35 36 37 38 39 40 41 42 43 44 45 46 47 48 49 50
104
ASUS44 KLIX 262011
RWRLIX
NEW ORLEANS REGIONAL WEATHER ROUNDUP
NATIONAL WEATHER SERVICE NEW ORLEANS LA
300 PM CDT THU MAR 26 2015

NOTE: "FAIR" INDICATES FEW OR NO CLOUDS BELOW 12,000 FEET WITH NO
      SIGNIFICANT WEATHER AND/OR OBSTRUCTIONS TO VISIBILITY.
      SKY/WX - SKY CONDITION AND SIGNIFICANT WEATHER.
      TMP - AIR TEMPERATURE.     DP    - DEWPOINT TEMPERATURE.
      RH  - RELATIVE HUMIDITY.   PRES  - PRESSURE.
      HI  - HEAT INDEX.          WCI   - WIND CHILL INDEX.

*  THESE STATIONS ARE NOT NWS OR FAA STATIONS AND ARE NOT UNDER
   NWS QUALITY CONTROL.

LAZ038-040-048-061>063-065>067-069-262100-
SOUTHEAST LOUISIANA

CITY           SKY/WX    TMP DP  RH WIND       PRES   REMARKS
N.O. AUDUBON     N/A     64  64  99 MISG        N/A
N.O. INTL ARPT LGT RAIN  63  59  87 SW8       29.85F
N.O. LAKEFRONT CLOUDY    65  59  81 S15       29.82F THUNDER
SLIDELL        LGT RAIN  67  64  90 S6        29.85R
BATON ROUGE    CLOUDY    70  63  78 S14       29.85F
BOOTHVILLE     LGT RAIN  66  65  96 W5        29.91R FOG
BELLE CHASSE   TSTM      64  60  87 S9        29.85F FOG
BOGALUSA*        N/A     73  65  78 SW5       29.87R
GALLIANO*      TSTM      61  60  96 CALM      29.89F
NEW ROADS*     TSTM      70  67  89 S7        29.84F
GONZALES*      LGT RAIN  65  65 100 S12       29.89F
HAMMOND*       CLOUDY    70  59  68 SW16      29.89R
HOUMA*         LGT RAIN  63  61  94 W5        29.93S FOG
PORT FOURCHON* PTCLDY    66  64  94 CALM      29.90F FOG

$$

MSZ070-080>082-262100-
SOUTHERN MISSISSIPPI

CITY           SKY/WX    TMP DP  RH WIND       PRES   REMARKS
MCCOMB         CLOUDY    73  63  70 S9        29.82F
GULFPORT       LGT RAIN  69  65  86 SW5       29.86F
BILOXI         LGT RAIN  68  66  94 S9        29.85F
PASCAGOULA     LGT RAIN  66  65  96 SW3       29.87F
STENNIS ARPT*  CLOUDY    68  64  88 S6        29.87F

$$

COASTAL OBSERVATIONS
LAKE AND NEARSHORE STATIONS

STATION/POSITION TIME  TEMP    WIND        PRES    WAVE
                       AIR SEA DIR/SP/G            HT/PER
                 (UTC) (F)     (DEG/KT/KT) (MB)    (FT/S)
PASCAGOULA       1900   67     280/  1/  4 1010.8
WAVELAND YACHT   1900   70 70  230/  3/  8 1011.3
GRAND ISLE       1900   68 71  200/  3/  5 1011.7
SOUTHWEST PASS   1900   62 51  240/  6/  8 1012.9
NEW CANAL        1900   64     210/  8/ 13 1012.4
SHELL BEACH      1900   65 72  240/ 10/ 12 1012.1

OFFSHORE STATIONS

STATION/POSITION TIME  TEMP    WIND        PRES    WAVE
                       AIR SEA DIR/SP/G            HT/PER
                 (UTC) (F)     (DEG/KT/KT) (MB)    (FT/S)
64 S DAUPHIN ISL 1950   69 72  290/ 12/ 16 1012.8    2/ 6

$$




USA.gov is the U.S. government's official web portal to all federal, state and local government web resources and services.